Powrót do katalogu

CZ-6A DEB

AktywnySSO
NORAD 56661·DEBRIS·🇨🇳 China

Wystrzelony Nov 11, 2022 z Taiyuan Satellite Launch Center

Loading…

Następne Przeloty (najbliższe 24 godziny)

TLE

ŚwieżeSource: Space-Track

Epoka: Sep 14, 2026, 21:07 UTC

1 56661U 22151AGM 26257.88002843  .00000321  00000-0  11023-3 0  9996
2 56661  98.6719 311.3440 0101709  17.8232 342.6482 14.40116866183270

Śledź CZ-6A DEB w czasie rzeczywistym z AllMySat

Download on the App Store